Location: Knobs
(40.8333°S, 175.2333°E)
Time: 02:01:03
(UTC+00:00)

Tsikada Rocket - Pass Details

Date: 12 June 2024
Orbit: 957 x 1008 km, 82.9° (Epoch: 22 July)

Event Time Altitude Azimuth Distance (km) Brightness Sun altitude
Rises 18:50:45 0° 348° (NNW) 3,683 7.2 -9.3°
Reaches altitude 10° 18:53:17 10° 345° (NNW) 2,735 6.5 -8.9°
Maximum altitude 18:59:32 70° 261° (W) 1,044 4.0 -7.8°
Drops below altitude 10° 19:05:48 10° 177° (S) 2,736 6.1 -6.7°
Sets 19:08:20 0° 174° (S) 3,685 6.8 -6.3°
